Regional Weather Roundup
Issued by NWS Newport/Morehead, NC

Current Version | Previous Version | Text Only | Print | Product List | Glossary Off
Versions: 1 2 3 4 5 6 7 8 9 10 11 12 13 14 15 16 17 18 19 20 21 22 23 24 25 26 27 28 29 30 31 32 33 34 35 36 37 38 39 40 41 42 43 44 45 46 47 48 49 50
000 ASUS42 KMHX 221114 RWRMHX WEATHER ROUNDUP FOR EASTERN NORTH CAROLINA NATIONAL WEATHER SERVICE NEWPORT/MOREHEAD CITY NC 700 AM EDT TUE AUG 22 2017 NOTE: "FAIR" INDICATES FEW OR NO CLOUDS BELOW 12,000 FEET WITH NO SIGNIFICANT WEATHER AND/OR OBSTRUCTIONS TO VISIBILITY NCZ015>017-031-032-045>047-102-103-221200- NORTH COAST CITY SKY/WX TMP DP RH WIND PRES REMARKS EDENTON MOCLDY 78 76 92 CALM 30.13R ELIZABETH CITY CLEAR 74 74 100 S5 30.12S FOG KITTY HAWK SUNNY 77 74 91 CALM 30.11S MANTEO PTCLDY 78 75 90 W6 30.13R $$ NCZ045>047-081-094-103-104-221200- CENTRAL COAST CITY SKY/WX TMP DP RH WIND PRES REMARKS FRISCO CLEAR 77 76 96 S3 30.12S $$ NCZ095-097-098-100-101-221200- SOUTHERN COAST CITY SKY/WX TMP DP RH WIND PRES REMARKS BEAUFORT CLEAR 74 74 100 NE3 30.12S CEDAR ISLAND NOT AVBL JACKSONVILLE CLEAR 74 74 100 CALM 30.11R PINEY ISLAND SUNNY N/A N/A N/A S3 30.12R WILMINGTON CLEAR 75 74 96 CALM 30.11S $$ NCZ011>013-027>030-043-044-078>080-089-090>093-098-221200- COASTAL PLAIN CITY SKY/WX TMP DP RH WIND PRES REMARKS AHOSKIE FOG 71 71 99 CALM 30.12R VSB 1/4 CLINTON CLOUDY 73 73 100 CALM 30.12S VSB 1/2 ELIZABETHTOWN NOT AVBL GOLDSBORO FOG 73 73 100 CALM 30.11S VSB 1/2 GREENVILLE CLOUDY 75 75 100 CALM 30.14R FOG HAVELOCK CLEAR 74 72 93 CALM 30.13S KENANSVILLE CLOUDY 72 72 100 CALM 30.12S FOG KINSTON FOG 73 73 100 CALM 30.13R VSB 1/4 NEW BERN CLEAR 73 73 100 CALM 30.13S FOG RICHLANDS PTCLDY 72 71 97 CALM 30.12S ROCKY MOUNT FOG 73 73 100 CALM 30.12R VSB 1/4 WASHINGTON PTCLDY 74 73 98 CALM 30.13R FOG WHITEVILLE CLEAR 74 73 97 CALM 30.11R $$ AMZ130-135-150-152-154-156-158-170-250-252-270-ANZ085-086-088-633-658-670-221200- MARINE OBSERVATIONS STATION/POSITION TIME TEMP WIND PRES WAVE SWELL AIR SEA DIR/SP/G HT/PER HT/PER (UTC) (F) (DEG/KT/KT) (MB) (FT/S) (FT/S) CHESAPEAKE LIGHT NOT AVBL 64 E VA BEACH 1050 79 79 190/ 8/ 8 1020.4 2/ 9 2/ 9 DUCK 1048 79 77 200/ 6/ 7 1019.6 2 E DUCK 1030 80 N/A 2/ 8 2/13 OREGON INLET 1036 81 80 180/ 6/ 8 1019.8 13E OREGON INLT 1018 80 N/A 2/ 8 2/ 8 HATTERAS CG 1048 80 82 150/ 3/ 5 1019.9 DIAMOND BUOY 1050 81 86 320/ 4/ 6 1019.9 3/ 9 3/ 9 CAPE LOOKOUT 1100 81 CALM / 1 1019.6 BEAUFORT LAB 1048 78 81 20/ 3/ 4 1019.3 30 SE NEW RVR IN 1008 79 83 150/ 4/ 8 1019.7 30 SE NEW RVR IN 1043 83 N/A 3/ 9 2/11 27 SE WRIGHTSVLE 1008 82 84 180/ 4/ 6 1019.4 5 SE WRIGHTSVLE 1008 81 83 60/ 4/ 6 1019.1 225 S CAPE HAT 1050 81 83 140/ 2/ 4 1020.2 5/11 5/11 41 SE CHARLESTON 1100 83 84 230/ 4/ 6 1018.7 $$

USA.gov is the U.S. government's official web portal to all federal, state and local government web resources and services.